CANX-4

Last updated on Dec. 13, 2018, 12:09 a.m. UTC

1 40055U 14034C   18346.86340844  .00000095  00000-0  22143-4 0  9995
2 40055  98.2043  95.1050 0015384 123.6291 236.6387 14.74775547239681
UTC
Height (km)
Latitude
Longitude
Inclination
Orbital Period
UTC large
Height (km)
Speed (km/s)
/
Latitude / Longitude
Inclination (degrees)
Orbital Period (minutes)
Azimuth
Elevation
Range (km)
Doppler Factor
iOS Compass Heading
iOS Angle